Regional Weather Roundup
Issued by NWS Bismarck, ND

Home | Current Version | Previous Version | Text Only | Print | Product List | Glossary On
Versions: 1 2 3 4 5 6 7 8 9 10 11 12 13 14 15 16 17 18 19 20 21 22 23 24 25 26 27 28 29 30 31 32 33 34 35 36 37 38 39 40 41 42 43 44 45 46 47 48 49 50
000
ASUS43 KBIS 312210
RWRBIS

NWR BROADCAST TEXT
NATIONAL WEATHER SERVICE BISMARCK ND
500 PM CDT TUE MAY 31 2016

NOTE: "FAIR" INDICATES FEW OR NO CLOUDS BELOW 12,000 FEET WITH NO
SIGNIFICANT WEATHER AND/OR OBSTRUCTIONS TO VISIBILITY.


CITY           SKY/WX    TMP DP  RH WIND       PRES   REMARKS
WILLISTON      LGT RAIN  54  49  83 N20G32    29.87R
MINOT          CLOUDY    67  55  65 NW22G29   29.64R
MINOT AFB      CLOUDY    58  53  84 NW21G29   29.64R
BISMARCK       CLOUDY    58  52  80 NW6       29.64S
DICKINSON      LGT RAIN  49  45  86 NW31G40   29.82R
GARRISON         N/A     62  52  69 W10       29.64S
HETTINGER ARPT PTSUNNY   54  46  74 NW30G44   29.87R
JAMESTOWN      PTSUNNY   60  49  66 SW15      29.65F
BEACH          CLOUDY    52  52 100 NW24G33   29.95R
CARRINGTON     FAIR      64  46  52 SW18      29.65S
HAZEN          MOCLDY    59  52  77 NW21G31   29.68R
LINTON           N/A     55  55 100 W20G28      N/A
MANDAN         FAIR      57  52  82 N13       29.66R
OAKES            N/A    N/A N/A N/A MISG        N/A
RUGBY          FAIR      64  50  59 W3        29.61F
STANLEY        LGT RAIN  52  52 100 N36G46    29.77R
WATFORD CITY   LGT RAIN  50  50 100 NW25      29.85R
$$

CITY           SKY/WX    TMP DP  RH WIND       PRES   REMARKS
GRAND FORKS    PTSUNNY   67  49  52 S14       29.67F
GRAND FORKS AF MOSUNNY   67  47  48 S10       29.67F
DEVILS LAKE    MOSUNNY   63  48  58 S6        29.64F
FARGO          PTSUNNY   70  44  39 S21G30    29.70F
CAVALIER       MOCLDY    66  54  63 S15       29.64S
GRAFTON        MOCLDY    64  50  59 S17       29.68R
GWINNER        FAIR      66  46  48 S22G29    29.71F
LANGDON        FAIR      66  54  63 SW8       29.64F
ROLLA          FAIR      61  52  72 S10       29.63F
WALHALLA       FAIR      66  63  88 S13G18    29.63F
$$

CITY           SKY/WX    TMP DP  RH WIND       PRES   REMARKS
ABERDEEN       PTSUNNY   65  46  50 SW29G39   29.75F
MOBRIDGE       CLOUDY    62  48  60 W26G39    29.71S
BUFFALO          N/A     53  47  79 NW29      29.90R
RAPID CITY     PTSUNNY   61  40  45 NW23G32   30.00R
GLASGOW        PTSUNNY   62  43  49 N30G37    30.01R
SIDNEY         CLOUDY    57  50  77 N21       29.91R
WOLF POINT     CLOUDY    65  47  52 N17G28    29.95F
GLENDIVE       CLOUDY    55  50  82 NW20G30   29.97F
MILES CITY     CLOUDY    60  50  69 NW12      30.02F
BAKER          LGT RAIN  51  32  48 NW17G31   29.98R
$$

CITY           SKY/WX    TMP DP  RH WIND       PRES   REMARKS
BILLINGS       MOSUNNY   63  37  38 N13G20    30.14F
GREAT FALLS    SUNNY     62  33  33 NW15      30.17F
REGINA         CLOUDY    54  50  87 N15G21    29.96R
ESTEVAN        LGT RAIN  52  50  93 NW25G33   29.83R FOG
$$





USA.gov is the U.S. government's official web portal to all federal, state and local government web resources and services.